AVA9205 SKBO-SKCL

Flight info

Callsign AVA9205
Flight time 0h 33m
Altitude 22000
Route KAMIS6A KAMIS W16 GIR R564 OREGA OREGA2C
Aircraft A320/M-SDE3FGHIRWY/LB1

Departure

Time 2026-05-08 19:49
Airport El Dorado International Airport (SKBO)

Arrival

Time 2026-05-08 20:22
Airport Alfonso Bonilla Aragon International Airport (SKCL)
Time Latitude Longitude Altitude Speed Heading
2026-05-08 18:50 4.69712 -74.14436 8366 ft 0 kts 37°
2026-05-08 19:31 4.69699 -74.14445 8366 ft 3 kts 22°
2026-05-08 19:32 4.69677 -74.14450 8366 ft 3 kts 351°
2026-05-08 19:32 4.69655 -74.14443 8366 ft 3 kts 327°
2026-05-08 19:32 4.69637 -74.14428 8366 ft 3 kts 310°
2026-05-08 19:32 4.69638 -74.14431 8366 ft 3 kts 307°
2026-05-08 19:33 4.69653 -74.14450 8366 ft 3 kts 307°
2026-05-08 19:33 4.69667 -74.14469 8366 ft 3 kts 307°
2026-05-08 19:33 4.69681 -74.14488 8366 ft 3 kts 307°
2026-05-08 19:33 4.69695 -74.14507 8366 ft 3 kts 307°
2026-05-08 19:34 4.69710 -74.14526 8366 ft 3 kts 307°
2026-05-08 19:34 4.69712 -74.14529 8366 ft 0 kts 307°
2026-05-08 19:36 4.69713 -74.14530 8366 ft 1 kts 307°
2026-05-08 19:36 4.69723 -74.14543 8366 ft 3 kts 307°
2026-05-08 19:36 4.69741 -74.14567 8366 ft 5 kts 307°
2026-05-08 19:37 4.69768 -74.14603 8366 ft 7 kts 307°
2026-05-08 19:37 4.69802 -74.14647 8366 ft 8 kts 307°
2026-05-08 19:37 4.69840 -74.14696 8366 ft 9 kts 308°
2026-05-08 19:37 4.69878 -74.14752 8366 ft 10 kts 304°
2026-05-08 19:38 4.69922 -74.14812 8366 ft 11 kts 308°
2026-05-08 19:38 4.69926 -74.14880 8366 ft 11 kts 229°
2026-05-08 19:38 4.69865 -74.14927 8366 ft 11 kts 217°
2026-05-08 19:38 4.69862 -74.14986 8366 ft 10 kts 310°
2026-05-08 19:39 4.69907 -74.15045 8366 ft 11 kts 307°
2026-05-08 19:39 4.69956 -74.15110 8366 ft 12 kts 308°
2026-05-08 19:39 4.69991 -74.15155 8366 ft 13 kts 307°
2026-05-08 19:39 4.70065 -74.15254 8366 ft 14 kts 307°
2026-05-08 19:40 4.70125 -74.15333 8365 ft 15 kts 307°
2026-05-08 19:40 4.70188 -74.15417 8365 ft 16 kts 307°
2026-05-08 19:40 4.70255 -74.15505 8365 ft 16 kts 307°
2026-05-08 19:40 4.70322 -74.15593 8365 ft 15 kts 306°
2026-05-08 19:41 4.70388 -74.15680 8365 ft 16 kts 307°
2026-05-08 19:41 4.70456 -74.15771 8365 ft 17 kts 307°
2026-05-08 19:41 4.70524 -74.15859 8366 ft 15 kts 307°
2026-05-08 19:41 4.70586 -74.15942 8365 ft 15 kts 307°
2026-05-08 19:42 4.70646 -74.16021 8366 ft 14 kts 307°
2026-05-08 19:42 4.70701 -74.16094 8366 ft 13 kts 307°
2026-05-08 19:42 4.70752 -74.16159 8366 ft 11 kts 307°
2026-05-08 19:42 4.70793 -74.16215 8366 ft 9 kts 307°
2026-05-08 19:43 4.70824 -74.16256 8366 ft 6 kts 307°
2026-05-08 19:43 4.70864 -74.16309 8366 ft 13 kts 307°
2026-05-08 19:43 4.70927 -74.16393 8366 ft 16 kts 307°
2026-05-08 19:43 4.70994 -74.16480 8366 ft 16 kts 308°
2026-05-08 19:44 4.71061 -74.16568 8366 ft 16 kts 307°
2026-05-08 19:44 4.71132 -74.16663 8366 ft 14 kts 307°
2026-05-08 19:44 4.71184 -74.16731 8366 ft 11 kts 307°
2026-05-08 19:44 4.71227 -74.16787 8366 ft 9 kts 307°
2026-05-08 19:45 4.71251 -74.16833 8366 ft 6 kts 278°
2026-05-08 19:45 4.71238 -74.16863 8366 ft 4 kts 227°
2026-05-08 19:45 4.71222 -74.16876 8366 ft 0 kts 216°
2026-05-08 19:46 4.71221 -74.16877 8365 ft 1 kts 216°
2026-05-08 19:46 4.71137 -74.16893 8364 ft 11 kts 170°
2026-05-08 19:47 4.71070 -74.16885 8363 ft 8 kts 184°
2026-05-08 19:47 4.71028 -74.16888 8363 ft 6 kts 144°
2026-05-08 19:47 4.71016 -74.16871 8363 ft 0 kts 125°
2026-05-08 19:48 4.70914 -74.16732 8363 ft 58 kts 127°
2026-05-08 19:48 4.70533 -74.16232 8366 ft 120 kts 127°
2026-05-08 19:48 4.69919 -74.15418 8366 ft 171 kts 127°
2026-05-08 19:48 4.69120 -74.14381 8610 ft 197 kts 124°
2026-05-08 19:49 4.68293 -74.13292 9477 ft 194 kts 126°
2026-05-08 19:49 4.67480 -74.12202 9951 ft 192 kts 126°
2026-05-08 19:49 4.66636 -74.11202 10398 ft 191 kts 143°
2026-05-08 19:49 4.65367 -74.10867 10808 ft 196 kts 188°
2026-05-08 19:50 4.64153 -74.11455 11175 ft 200 kts 225°
2026-05-08 19:50 4.63493 -74.12722 11330 ft 217 kts 256°
2026-05-08 19:50 4.63159 -74.14262 11475 ft 235 kts 257°
2026-05-08 19:50 4.62803 -74.15924 11601 ft 254 kts 258°
2026-05-08 19:51 4.62417 -74.17725 11715 ft 276 kts 257°
2026-05-08 19:51 4.61997 -74.19657 12088 ft 289 kts 257°
2026-05-08 19:51 4.61563 -74.21639 12694 ft 293 kts 256°
2026-05-08 19:51 4.61119 -74.23650 13313 ft 296 kts 257°
2026-05-08 19:52 4.60670 -74.25668 13981 ft 298 kts 256°
2026-05-08 19:52 4.60035 -74.27655 14479 ft 302 kts 239°
2026-05-08 19:52 4.58833 -74.29456 14641 ft 319 kts 233°
2026-05-08 19:52 4.57535 -74.31298 15025 ft 327 kts 234°
2026-05-08 19:53 4.56219 -74.33181 15578 ft 331 kts 234°
2026-05-08 19:53 4.54920 -74.35055 16153 ft 333 kts 235°
2026-05-08 19:53 4.53597 -74.36967 16710 ft 334 kts 234°
2026-05-08 19:53 4.52269 -74.38887 17297 ft 336 kts 235°
2026-05-08 19:54 4.50929 -74.40821 17840 ft 339 kts 234°
2026-05-08 19:54 4.49576 -74.42768 18366 ft 342 kts 234°
2026-05-08 19:54 4.48187 -74.44764 18515 ft 357 kts 234°
2026-05-08 19:54 4.46735 -74.46855 18627 ft 374 kts 235°
2026-05-08 19:55 4.45198 -74.49074 18740 ft 391 kts 235°
2026-05-08 19:55 4.43642 -74.51327 18869 ft 403 kts 235°
2026-05-08 19:55 4.42035 -74.53654 19231 ft 409 kts 235°
2026-05-08 19:55 4.40412 -74.55999 19687 ft 412 kts 234°
2026-05-08 19:56 4.38768 -74.58366 20148 ft 415 kts 234°
2026-05-08 19:56 4.37114 -74.60745 20620 ft 417 kts 234°
2026-05-08 19:56 4.35444 -74.63145 21066 ft 420 kts 234°
2026-05-08 19:56 4.33766 -74.65554 21493 ft 423 kts 234°
2026-05-08 19:57 4.32081 -74.67979 21771 ft 425 kts 234°
2026-05-08 19:57 4.30384 -74.70424 21835 ft 432 kts 234°
2026-05-08 19:57 4.28659 -74.72920 21835 ft 436 kts 234°
2026-05-08 19:57 4.26960 -74.75382 21835 ft 436 kts 234°
2026-05-08 19:58 4.25226 -74.77890 21838 ft 436 kts 234°
2026-05-08 19:58 4.23496 -74.80387 21837 ft 437 kts 234°
2026-05-08 19:58 4.21757 -74.82892 21903 ft 437 kts 234°
2026-05-08 19:58 4.20023 -74.85390 21904 ft 437 kts 235°
2026-05-08 19:59 4.18468 -74.88001 21898 ft 437 kts 242°
2026-05-08 19:59 4.17081 -74.90716 21913 ft 437 kts 242°
2026-05-08 19:59 4.15694 -74.93434 21916 ft 437 kts 242°
2026-05-08 19:59 4.14309 -74.96146 21911 ft 437 kts 242°
2026-05-08 20:00 4.12926 -74.98849 21906 ft 436 kts 242°
2026-05-08 20:00 4.11537 -75.01560 21896 ft 436 kts 242°
2026-05-08 20:00 4.10151 -75.04260 21894 ft 436 kts 242°
2026-05-08 20:00 4.08779 -75.06931 21893 ft 436 kts 242°
2026-05-08 20:01 4.07395 -75.09631 21890 ft 435 kts 242°
2026-05-08 20:01 4.06007 -75.12331 21888 ft 435 kts 242°
2026-05-08 20:01 4.04622 -75.15032 21887 ft 435 kts 242°
2026-05-08 20:01 4.03238 -75.17734 21885 ft 436 kts 242°
2026-05-08 20:02 4.01856 -75.20432 21884 ft 435 kts 242°
2026-05-08 20:02 4.00474 -75.23129 21922 ft 435 kts 242°
2026-05-08 20:02 3.99086 -75.25830 21922 ft 435 kts 242°
2026-05-08 20:02 3.97695 -75.28535 21891 ft 436 kts 242°
2026-05-08 20:03 3.96310 -75.31229 21894 ft 436 kts 242°
2026-05-08 20:03 3.94923 -75.33929 21893 ft 436 kts 242°
2026-05-08 20:03 3.93559 -75.36591 21943 ft 436 kts 242°
2026-05-08 20:03 3.92176 -75.39296 21945 ft 436 kts 242°
2026-05-08 20:04 3.90796 -75.41998 21940 ft 436 kts 242°
2026-05-08 20:04 3.89413 -75.44701 21940 ft 436 kts 242°
2026-05-08 20:04 3.88030 -75.47397 21941 ft 435 kts 242°
2026-05-08 20:04 3.86646 -75.50094 22009 ft 435 kts 242°
2026-05-08 20:05 3.85301 -75.52807 22014 ft 435 kts 243°
2026-05-08 20:05 3.83998 -75.55548 21976 ft 435 kts 244°
2026-05-08 20:05 3.82721 -75.58296 21974 ft 435 kts 244°
2026-05-08 20:05 3.81450 -75.61053 21978 ft 435 kts 244°
2026-05-08 20:06 3.80176 -75.63804 21977 ft 436 kts 244°
2026-05-08 20:06 3.78892 -75.66555 22040 ft 436 kts 244°
2026-05-08 20:06 3.77614 -75.69275 21850 ft 428 kts 244°
2026-05-08 20:06 3.76366 -75.71924 21609 ft 424 kts 244°
2026-05-08 20:07 3.75106 -75.74588 21364 ft 422 kts 244°
2026-05-08 20:07 3.73846 -75.77243 21126 ft 422 kts 244°
2026-05-08 20:07 3.72587 -75.79890 20928 ft 421 kts 244°
2026-05-08 20:07 3.71337 -75.82529 20689 ft 419 kts 244°
2026-05-08 20:08 3.70100 -75.85160 20456 ft 417 kts 244°
2026-05-08 20:08 3.68866 -75.87783 20227 ft 416 kts 244°
2026-05-08 20:08 3.67627 -75.90408 19980 ft 416 kts 243°
2026-05-08 20:08 3.66387 -75.93030 19777 ft 415 kts 244°
2026-05-08 20:09 3.65151 -75.95639 19562 ft 414 kts 244°
2026-05-08 20:09 3.63920 -75.98232 19333 ft 412 kts 243°
2026-05-08 20:09 3.62695 -76.00814 18907 ft 408 kts 244°
2026-05-08 20:09 3.61485 -76.03371 18468 ft 405 kts 243°
2026-05-08 20:10 3.60287 -76.05912 17903 ft 403 kts 243°
2026-05-08 20:10 3.59110 -76.08410 17362 ft 401 kts 243°
2026-05-08 20:10 3.57903 -76.10963 16809 ft 400 kts 243°
2026-05-08 20:10 3.56731 -76.13444 16279 ft 397 kts 243°
2026-05-08 20:11 3.55550 -76.15943 15728 ft 396 kts 244°
2026-05-08 20:11 3.54374 -76.18429 15160 ft 395 kts 244°
2026-05-08 20:11 3.53194 -76.20917 14589 ft 395 kts 244°
2026-05-08 20:11 3.52015 -76.23404 14000 ft 395 kts 244°
2026-05-08 20:12 3.50748 -76.25820 13819 ft 385 kts 234°
2026-05-08 20:12 3.48993 -76.27755 13703 ft 369 kts 217°
2026-05-08 20:12 3.46860 -76.29052 13561 ft 354 kts 201°
2026-05-08 20:12 3.44538 -76.29717 13404 ft 340 kts 191°
2026-05-08 20:13 3.42255 -76.30213 13246 ft 330 kts 191°
2026-05-08 20:13 3.40058 -76.30695 12928 ft 327 kts 191°
2026-05-08 20:13 3.37830 -76.31188 12435 ft 328 kts 191°
2026-05-08 20:13 3.35601 -76.31684 11993 ft 328 kts 191°
2026-05-08 20:14 3.33366 -76.32179 11542 ft 328 kts 191°
2026-05-08 20:14 3.31166 -76.32666 11098 ft 317 kts 192°
2026-05-08 20:14 3.29051 -76.33134 10637 ft 306 kts 191°
2026-05-08 20:14 3.27046 -76.33727 10194 ft 297 kts 209°
2026-05-08 20:15 3.25590 -76.35103 9752 ft 286 kts 242°
2026-05-08 20:15 3.25139 -76.36971 9295 ft 273 kts 274°
2026-05-08 20:15 3.25396 -76.38793 8896 ft 264 kts 283°
2026-05-08 20:15 3.25848 -76.40560 8496 ft 262 kts 290°
2026-05-08 20:16 3.26883 -76.42015 8076 ft 257 kts 326°
2026-05-08 20:16 3.28505 -76.42578 7762 ft 244 kts 360°
2026-05-08 20:16 3.30152 -76.42370 7445 ft 235 kts
2026-05-08 20:16 3.31722 -76.42091 7199 ft 223 kts
2026-05-08 20:17 3.33239 -76.41826 6963 ft 220 kts
2026-05-08 20:17 3.34745 -76.41565 6718 ft 218 kts
2026-05-08 20:17 3.36221 -76.41308 6437 ft 211 kts
2026-05-08 20:17 3.37656 -76.41060 6168 ft 207 kts
2026-05-08 20:18 3.39052 -76.40818 5902 ft 200 kts
2026-05-08 20:18 3.40396 -76.40583 5669 ft 192 kts
2026-05-08 20:18 3.41655 -76.40366 5421 ft 178 kts
2026-05-08 20:18 3.42824 -76.40164 5224 ft 164 kts 10°
2026-05-08 20:19 3.43910 -76.39976 5002 ft 154 kts
2026-05-08 20:19 3.44966 -76.39792 4794 ft 153 kts
2026-05-08 20:19 3.45657 -76.39670 4647 ft 151 kts
2026-05-08 20:19 3.46706 -76.39491 4457 ft 152 kts
2026-05-08 20:20 3.48107 -76.39248 4157 ft 151 kts 10°
2026-05-08 20:20 3.48800 -76.39130 4034 ft 153 kts
2026-05-08 20:20 3.49852 -76.38948 3831 ft 154 kts
2026-05-08 20:20 3.50891 -76.38766 3626 ft 151 kts
2026-05-08 20:21 3.51925 -76.38578 3393 ft 150 kts 11°
2026-05-08 20:21 3.52954 -76.38407 3206 ft 149 kts 12°
2026-05-08 20:21 3.53911 -76.38237 3165 ft 123 kts 10°
2026-05-08 20:21 3.54581 -76.38122 3165 ft 73 kts
2026-05-08 20:22 3.54936 -76.38062 3165 ft 28 kts 10°
2026-05-08 20:22 3.55066 -76.38047 3167 ft 14 kts 342°
2026-05-08 20:22 3.55104 -76.38109 3168 ft 10 kts 277°
2026-05-08 20:22 3.55111 -76.38156 3168 ft 6 kts 278°
2026-05-08 20:23 3.55092 -76.38196 3168 ft 8 kts 213°
2026-05-08 20:23 3.55025 -76.38211 3168 ft 12 kts 188°
2026-05-08 20:23 3.54932 -76.38227 3170 ft 16 kts 190°
2026-05-08 20:23 3.54819 -76.38247 3167 ft 15 kts 189°
2026-05-08 20:24 3.54704 -76.38266 3167 ft 17 kts 189°
2026-05-08 20:24 3.54589 -76.38286 3167 ft 15 kts 189°
2026-05-08 20:24 3.54480 -76.38304 3167 ft 17 kts 189°
2026-05-08 20:24 3.54384 -76.38321 3165 ft 10 kts 190°
2026-05-08 20:25 3.54304 -76.38335 3165 ft 13 kts 190°
2026-05-08 20:25 3.54207 -76.38351 3164 ft 13 kts 189°
2026-05-08 20:25 3.54122 -76.38366 3164 ft 9 kts 190°
2026-05-08 20:25 3.54064 -76.38397 3164 ft 11 kts 220°
2026-05-08 20:26 3.54002 -76.38450 3163 ft 12 kts 221°
2026-05-08 20:26 3.53932 -76.38509 3163 ft 14 kts 220°
2026-05-08 20:26 3.53863 -76.38567 3162 ft 9 kts 219°
2026-05-08 20:26 3.53835 -76.38611 3162 ft 7 kts 270°
2026-05-08 20:27 3.53834 -76.38663 3162 ft 7 kts 263°
2026-05-08 20:27 3.53832 -76.38696 3162 ft 2 kts 266°
2026-05-08 20:27 3.53831 -76.38703 3162 ft 0 kts 266°